#timestamp,LO_Frequency,Hit,StdDev 
1541102415.3,286047012.4,N
1541102435.1,286047009.3,N
1541102455.8,286047009.9,N
1541102475.7,286047012.2,N
1541102495.5,286047013.7,N
1541102515.4,286047010.9,N
1541102535.2,286047011.8,N
1541102555.0,286047011.1,N
1541102555.9,286047011.1,N
1541102575.8,286047014.8,N
1541102595.6,286047014.3,N
1541102615.4,286047017.1,Y
1541102635.3,286047008.2,P
1541102655.1,286047009.7,P
1541102675.9,286047015.6,P
1541102695.7,286047014.9,Y
1541102715.5,286047001.6,P
1541102735.4,286046999.7,N
1541102755.2,286047000.6,N
1541102775.0,286047000.0,N
1541102775.9,286047000.0,N
1541102795.8,286047000.3,N
1541102815.6,286046998.6,N
1541102835.5,286046996.9,N
1541102855.3,286046995.5,N
1541102875.1,286046995.5,N
1541102895.9,286046993.6,N
1541102915.7,286046994.0,N
1541102935.5,286047000.9,N
1541102955.4,286047002.8,N
1541102975.2,286047001.6,N
1541102995.1,286046999.9,N
1541102996.0,286046999.9,N
1541103015.8,286046998.3,N
1541103035.6,286046999.3,N
1541103055.5,286046996.5,N
1541103075.3,286046998.3,N
1541103095.1,286047001.1,N
1541103115.9,286046999.8,N
1541103135.7,286047000.4,N
1541103155.6,286047002.6,N
1541103175.4,286047005.3,N
1541103195.2,286047005.7,N
1541103215.1,286047007.6,N
1541103216.0,286047007.6,N
1541103235.8,286047005.4,N
1541103255.6,286047002.1,N
1541103275.5,286047000.1,N
1541103295.3,286047004.1,N
1541103315.1,286047001.9,N
1541103335.9,286047002.3,N
1541103355.7,286047002.7,N
1541103375.6,286047006.8,N
1541103395.4,286047003.2,N
1541103415.2,286047004.6,N
1541103435.1,286047007.2,N
1541103436.0,286047007.2,N
1541103455.8,286047009.8,N
1541103475.7,286047010.7,Y
1541103495.5,286047009.2,P
1541103515.3,286047003.4,N
1541103535.2,286047003.3,N
1541103555.9,286047002.0,N
1541103575.7,286046998.6,N
1541103595.6,286047002.8,N
1541103615.4,286046997.0,N
1541103635.2,286046995.4,N
1541103655.1,286046997.9,N
1541103656.0,286046997.9,N
1541103675.8,286046997.4,N
1541103695.7,286046996.7,N
1541103715.5,286046998.3,N
1541103735.3,286047001.7,N
1541103755.2,286047001.3,N
1541103775.0,286046999.1,N
1541103805.9,286046995.4,E
1541103815.9,286046998.0,N
1541103835.7,286046994.9,P
1541103855.5,286046994.2,P
1541103875.4,286046991.0,Y
1541103895.2,286046991.8,P
1541103915.1,286046994.2,N
1541103916.0,286046994.2,P
1541103935.8,286046993.9,Y
1541103955.6,286046996.5,P
1541103975.5,286046995.2,P
1541103995.3,286046994.7,P
1541104015.2,286046992.3,Y
1541104035.9,286046995.2,P
1541104055.7,286046993.6,P
1541104075.6,286046992.1,P
1541104095.4,286046996.4,N
1541104115.2,286046996.4,N
1541104135.1,286046992.6,Y
1541104136.0,286046992.6,P
1541104155.8,286046995.6,P
1541104175.7,286046994.1,P
1541104195.5,286046994.3,Y
1541104215.4,286046995.5,P
1541104235.2,286046994.0,P
1541104255.0,286046992.4,P
1541104255.9,286046992.4,Y
1541104275.8,286046999.3,P
1541104295.6,286046999.1,N
1541104315.4,286046996.5,N
1541104335.3,286046999.5,N
1541104355.1,286046998.3,N
1541104375.9,286046998.8,N
1541104395.7,286046997.1,N
1541104415.5,286046996.3,N
1541104435.4,286046991.7,Y
1541104455.2,286046994.0,P
1541104475.1,286046994.6,N
1541104476.0,286046994.6,P
1541104495.8,286046994.0,Y
1541104515.6,286046998.6,P
1541104535.5,286047001.0,N
1541104555.3,286046999.3,N
1541104575.2,286046997.6,N
1541104595.9,286046993.4,Y
1541104615.7,286046995.0,P
1541104635.6,286046997.9,N
1541104655.4,286046996.2,N
1541104675.2,286046996.1,N
1541104695.1,286046993.5,Y
1541104696.0,286046993.5,P
1541104715.8,286047000.6,N
1541104735.7,286047001.6,N
1541104755.5,286047001.7,N
1541104775.3,286047001.5,N
1541104795.2,286047004.0,N
1541104815.0,286047002.0,N
1541104815.9,286047002.0,N
1541104835.8,286047001.5,N
1541104855.6,286046998.2,N
1541104875.4,286046999.2,N
1541104895.3,286046998.0,N
1541104915.1,286046997.7,N
1541104935.8,286046998.0,N
1541104955.7,286046997.5,N
1541104975.5,286046998.7,N
1541104995.4,286047000.4,N
1541105015.2,286047000.6,N
1541105035.0,286046999.4,N
1541105035.9,286046999.4,N
1541105055.8,286046997.8,N
1541105075.6,286046996.5,N
1541105095.4,286046999.4,N
1541105115.3,286046998.8,N
1541105135.1,286046999.6,N
1541105155.9,286046999.4,N
1541105175.7,286047001.2,N
1541105195.5,286047000.4,N
1541105215.4,286046999.9,N
1541105235.2,286047002.3,N
1541105255.0,286047000.3,N
1541105255.9,286047000.3,N
1541105275.8,286047000.8,N
1541105295.6,286046996.9,N
1541105315.5,286046997.6,N
1541105335.3,286047011.9,Y
1541105355.1,286046996.2,P
1541105375.9,286046994.0,P
1541105395.7,286046991.8,P
1541105415.6,286046999.5,N
1541105435.4,286046999.5,N
1541105455.2,286046999.2,N
1541105475.1,286046997.2,N
1541105476.0,286046997.2,N
1541105495.8,286046997.9,N
1541105515.6,286046995.2,N
1541105535.5,286046993.6,N
1541105555.3,286046992.7,N
1541105575.1,286046990.6,Y
1541105595.9,286046996.4,P
1541105645.8,286046993.0,E
1541105655.7,286046997.9,N
1541105675.5,286047007.5,P
1541105695.3,286047007.6,N
1541105715.2,286047004.5,N
1541105735.0,286047004.6,N
1541105735.9,286047004.6,N
1541105755.8,286047005.6,N
1541105775.6,286047004.4,N
1541105795.4,286047001.4,N
1541105815.3,286047003.3,N
1541105835.1,286047010.3,Y
1541105855.8,286047006.9,P
1541105875.7,286047007.4,P
1541105895.5,286047007.2,P
1541105915.4,286047005.6,Y
1541105935.2,286046996.1,P
1541105955.0,286046995.0,N
1541105955.9,286046995.0,N
1541105975.8,286046995.3,N
1541105995.6,286046996.0,N
